CW3224 Weather Reports


time (UTC)temp
C
wind
direction
speed
KPH
gust
KPH
rain 1hr
cm
rain 24hr
cm
rain mn
cm
humidity
%
barometer
mb
20260905173743 21 47 0.0 3.2 0.00 0.00 0.00 73 1009.7
20260905172743 22 44 0.0 1.6 0.00 0.00 0.00 73 1009.5
20260905171744 22 12 0.0 4.8 0.00 0.00 0.00 72 1009.5
20260905170734 22 355 0.0 0.0 0.00 0.00 0.00 77 1009.6
20260905165734 21 43 0.0 0.0 0.00 0.00 0.00 76 1009.7
20260905164733 21 39 0.0 0.0 0.00 0.00 0.00 76 1009.7
20260905163733 21 90 0.0 0.0 0.00 0.00 0.00 75 1009.6
20260905162733 21 90 0.0 0.0 0.00 0.00 0.00 76 1009.7
20260905161735 21 0 0.0 0.0 0.00 0.00 0.00 76 1009.7
20260905160724 22 40 0.0 8.0 0.00 0.00 0.00 74 1009.7
20260905155725 22 12 0.0 6.4 0.00 0.00 0.00 76 1009.7
20260905155207 21 63 0.0 6.4 0.00 0.00 0.00 78 1009.7
20260905154209 21 16 0.0 4.8 0.00 0.00 0.00 77 1009.7
20260905152725 21 231 0.0 0.0 0.00 0.00 0.00 79 1009.7
20260905151724 20 358 0.0 4.8 0.00 0.00 0.00 82 1009.7
20260905150713 20 6 0.0 6.4 0.00 0.00 0.00 81 1009.7
20260905145714 20 356 0.0 4.8 0.00 0.00 0.00 83 1009.8
20260905144712 19 359 0.0 3.2 0.00 0.00 0.00 82 1009.8
20260905143712 19 44 0.0 0.0 0.00 0.00 0.00 83 1009.8
20260905142713 19 52 0.0 0.0 0.00 0.00 0.00 84 1009.9
20260905141711 19 5 0.0 1.6 0.00 0.00 0.00 85 1009.9
20260905140712 18 7 0.0 0.0 0.00 0.00 0.00 87 1010.0
20260905135711 18 358 0.0 3.2 0.00 0.00 0.00 89 1009.8
20260905134711 18 95 0.0 0.0 0.00 0.00 0.00 91 1009.8
20260905133710 17 95 0.0 0.0 0.00 0.00 0.00 92 1009.7
20260905132712 17 301 0.0 0.0 0.00 0.00 0.00 92 1009.7
20260905131709 17 301 0.0 0.0 0.00 0.00 0.00 93 1009.7
20260905130708 17 301 0.0 0.0 0.00 0.00 0.00 93 1009.3
20260905125708 17 301 0.0 0.0 0.00 0.00 0.00 94 1009.3
20260905124709 16 301 0.0 0.0 0.00 0.00 0.00 94 1009.3
20260905123709 16 301 0.0 0.0 0.00 0.00 0.00 94 1009.1
20260905122710 16 127 0.0 0.0 0.00 0.00 0.00 94 1009.1
20260905121706 16 301 0.0 0.0 0.00 0.00 0.00 94 1009.1
20260905120708 15 301 0.0 0.0 0.00 0.00 0.00 94 1009.0
20260905115708 15 301 0.0 0.0 0.00 0.00 0.00 93 1008.7
20260905115140 14 127 0.0 0.0 0.00 0.00 0.00 93 1008.7
20260905114147 14 127 0.0 0.0 0.00 0.00 0.00 92 1008.7
20260905113146 13 127 0.0 0.0 0.00 0.00 0.00 92 1008.7
20260905111656 13 127 0.0 0.0 0.00 0.00 0.00 92 1008.7
20260905110657 13 127 0.0 0.0 0.00 0.00 0.00 92 1008.5
20260905105656 13 127 0.0 0.0 0.00 0.00 0.00 92 1008.6
20260905104657 13 127 0.0 0.0 0.00 0.00 0.00 92 1008.6
20260905104607 13 127 0.0 0.0 0.00 0.00 0.00 92 1008.5
20260905102651 13 127 0.0 0.0 0.00 0.00 0.00 92 1008.6
20260905101650 13 127 0.0 0.0 0.00 0.00 0.00 91 1008.6
20260905100650 13 127 0.0 0.0 0.00 0.00 0.00 91 1008.5
20260905100124 13 127 0.0 0.0 0.00 0.00 0.00 91 1008.2
20260905094647 13 127 0.0 0.0 0.00 0.00 0.00 91 1008.2
20260905093646 13 127 0.0 0.0 0.00 0.00 0.00 91 1008.2
20260905092647 13 127 0.0 0.0 0.00 0.00 0.00 91 1008.1
20260905091646 13 127 0.0 0.0 0.00 0.00 0.00 91 1008.1
20260905090647 14 127 0.0 0.0 0.00 0.00 0.00 91 1008.1
20260905085646 14 127 0.0 0.0 0.00 0.00 0.00 91 1008.1
20260905084646 14 127 0.0 0.0 0.00 0.00 0.00 91 1008.1
20260905084041 14 127 0.0 0.0 0.00 0.00 0.00 91 1008.0
20260905083716 14 127 0.0 0.0 0.00 0.00 0.00 91 1008.0
20260905081647 14 127 0.0 0.0 0.00 0.00 0.00 91 1008.0
20260905080644 14 127 0.0 0.0 0.00 0.00 0.00 91 1008.1
20260905075644 14 127 0.0 0.0 0.00 0.00 0.00 91 1008.1
20260905074645 14 127 0.0 0.0 0.00 0.00 0.00 91 1008.1
20260905073642 15 127 0.0 0.0 0.00 0.00 0.00 90 1008.1
20260905072640 15 127 0.0 0.0 0.00 0.00 0.00 90 1008.1
20260905071640 15 127 0.0 0.0 0.00 0.00 0.00 90 1008.1
20260905070643 15 127 0.0 0.0 0.00 0.00 0.00 90 1008.2
20260905065639 15 127 0.0 0.0 0.00 0.00 0.00 90 1008.2
20260905064640 15 127 0.0 0.0 0.00 0.00 0.00 90 1008.2
20260905064124 15 127 0.0 0.0 0.00 0.00 0.00 90 1008.4
20260905062630 15 127 0.0 0.0 0.00 0.00 0.00 90 1008.6
20260905061631 15 127 0.0 0.0 0.00 0.00 0.00 90 1008.6
20260905060630 15 127 0.0 0.0 0.00 0.00 0.00 90 1008.7
20260905055630 15 127 0.0 0.0 0.00 0.03 0.00 90 1008.7
20260905054630 15 127 0.0 0.0 0.00 0.03 0.00 89 1008.7
20260905053629 15 127 0.0 0.0 0.00 0.03 0.00 89 1008.8
20260905052629 16 127 0.0 0.0 0.00 0.03 0.00 89 1008.8
20260905051625 16 127 0.0 0.0 0.00 0.03 0.00 89 1008.8
20260905050627 16 127 0.0 0.0 0.00 0.03 0.00 89 1008.9
20260905045626 16 127 0.0 0.0 0.00 0.03 0.00 89 1008.7
20260905045532 16 127 0.0 0.0 0.00 0.03 0.00 89 1008.7
20260905043626 16 127 0.0 0.0 0.00 0.03 0.00 89 1008.7
20260905043113 16 127 0.0 0.0 0.00 0.03 0.00 88 1008.6
20260905041625 16 127 0.0 0.0 0.00 0.03 0.00 88 1008.6
20260905040627 16 127 0.0 0.0 0.00 0.03 0.00 88 1008.7
20260905040104 16 301 0.0 0.0 0.00 0.03 0.03 88 1008.7
20260905034626 16 127 0.0 0.0 0.00 0.03 0.03 88 1008.7
20260905033624 17 127 0.0 0.0 0.00 0.03 0.03 88 1008.7
20260905032625 17 127 0.0 0.0 0.00 0.03 0.03 88 1008.7
20260905031624 17 301 0.0 0.0 0.00 0.03 0.03 88 1008.7
20260905030626 17 127 0.0 0.0 0.00 0.03 0.03 87 1008.8
20260905030601 17 127 0.0 0.0 0.00 0.03 0.03 87 1008.8
20260905024623 17 127 0.0 0.0 0.00 0.03 0.03 87 1008.8
20260905023624 17 127 0.0 0.0 0.00 0.03 0.03 86 1009.0
20260905023106 17 127 0.0 0.0 0.00 0.03 0.03 86 1009.1
20260905021621 18 127 0.0 0.0 0.00 0.03 0.03 86 1009.1
20260905021102 18 127 0.0 0.0 0.00 0.03 0.03 86 1009.2
20260905015621 18 127 0.0 0.0 0.00 0.03 0.03 85 1009.2
20260905014621 18 127 0.0 0.0 0.00 0.03 0.03 84 1009.2
20260905013620 18 127 0.0 0.0 0.00 0.03 0.03 84 1009.2
20260905012618 18 127 0.0 0.0 0.00 0.03 0.03 83 1009.2
20260905012057 19 127 0.0 0.0 0.00 0.03 0.03 83 1009.2
20260905010619 19 127 0.0 0.0 0.00 0.03 0.03 84 1009.2
20260905005620 20 127 0.0 0.0 0.00 0.03 0.03 83 1009.1
20260905004617 20 127 0.0 0.0 0.00 0.03 0.03 82 1009.1
20260905004549 20 127 0.0 0.0 0.00 0.03 0.03 81 1009.1
20260905002617 20 127 0.0 0.0 0.00 0.03 0.03 81 1009.1
20260905001618 20 127 0.0 0.0 0.00 0.03 0.03 81 1009.1
20260905000617 21 127 0.0 0.0 0.00 0.03 0.03 80 1008.8
20260904235616 21 127 0.0 0.0 0.00 0.03 0.03 80 1008.7
20260904235530 21 127 0.0 0.0 0.00 0.03 0.03 79 1008.7
20260904234100 22 127 0.0 0.0 0.00 0.03 0.03 78 1008.6
20260904232611 22 127 0.0 0.0 0.00 0.03 0.03 78 1008.3
20260904231610 22 127 0.0 0.0 0.00 0.03 0.03 77 1008.3
20260904230611 22 127 0.0 0.0 0.00 0.03 0.03 76 1008.2
20260904225612 23 127 0.0 0.0 0.00 0.03 0.03 76 1008.3
20260904224604 23 127 0.0 0.0 0.00 0.03 0.03 75 1008.3
20260904224046 23 127 0.0 0.0 0.00 0.03 0.03 74 1008.2
20260904222606 23 127 0.0 0.0 0.00 0.03 0.03 72 1008.1
20260904221604 24 127 0.0 0.0 0.00 0.03 0.03 72 1008.1
20260904221050 24 127 0.0 0.0 0.00 0.03 0.03 71 1008.1
20260904215602 24 127 0.0 0.0 0.00 0.03 0.03 70 1008.1
20260904215525 24 127 0.0 0.0 0.00 0.03 0.03 70 1008.1
20260904213601 25 131 0.0 0.0 0.00 0.03 0.03 69 1008.1
20260904212559 25 4 0.0 0.0 0.00 0.03 0.03 69 1008.1
20260904211556 25 181 0.0 0.0 0.00 0.03 0.03 68 1008.1
20260904210558 25 23 0.0 0.0 0.00 0.03 0.03 67 1008.1
20260904205553 25 8 0.0 0.0 0.00 0.03 0.03 68 1008.1
20260904204551 25 117 0.0 0.0 0.00 0.03 0.03 69 1008.1
20260904203548 25 117 0.0 0.0 0.00 0.03 0.03 68 1008.1
20260904202550 25 117 0.0 1.6 0.00 0.03 0.03 68 1008.1
20260904201548 25 66 0.0 1.6 0.00 0.03 0.03 64 1008.1
20260904200554 26 135 0.0 0.0 0.00 0.03 0.03 63 1008.1
20260904195546 26 126 0.0 0.0 0.00 0.03 0.03 63 1008.2
20260904194547 26 18 0.0 1.6 0.00 0.03 0.03 63 1008.2
20260904193546 26 128 0.0 3.2 0.00 0.03 0.03 59 1007.9
20260904192541 26 37 0.0 3.2 0.00 0.03 0.03 59 1007.7
20260904191539 26 236 0.0 0.0 0.00 0.03 0.03 59 1007.7
20260904190538 27 52 0.0 4.8 0.00 0.03 0.03 59 1008.1
20260904190020 27 166 0.0 6.4 0.00 0.03 0.03 61 1008.1
20260904185455 27 343 0.0 3.2 0.00 0.03 0.03 60 1008.1
20260904183537 27 14 1.6 8.0 0.00 0.03 0.03 58 1008.2
20260904182536 28 63 0.0 12.9 0.00 0.03 0.03 57 1008.2
20260904181536 28 103 0.0 6.4 0.00 0.03 0.03 58 1008.2
20260904180537 28 23 0.0 1.6 0.00 0.03 0.03 59 1008.2
20260904175537 28 108 0.0 6.4 0.00 0.03 0.03 57 1008.2
20260904174537 28 46 0.0 6.4 0.00 0.03 0.03 60 1008.2